,,PA_Meas_PMT16A,,PR_Meas_QMR101_102,,RH_Meas_QMH101,,SR_Meas_QMS101,,TA_Meas_QMH101,,GenWind,,GenWind,
time,status,PA,status,PR,status,RH,status,SR,status,TA,status,DirAvg,status,SpdAvg,
2012-08-23, 00:00:05,VALID,917.986,VALID,0,VALID,97.069,VALID,0,VALID,19.7823,VALID,166,VALID,0,
2012-08-23, 00:01:05,VALID,917.995,VALID,0,VALID,97.0766,VALID,0.107441,VALID,19.7628,VALID,166,VALID,0,
2012-08-23, 00:02:05,VALID,918.013,VALID,0,VALID,97.069,VALID,0,VALID,19.7643,VALID,166,VALID,0,
2012-08-23, 00:03:05,VALID,917.957,VALID,0,VALID,97.0308,VALID,0,VALID,19.6848,VALID,166,VALID,0,
2012-08-23, 00:04:05,VALID,917.978,VALID,0,VALID,96.9851,VALID,0,VALID,19.6068,VALID,99,VALID,0,
2012-08-23, 00:05:05,VALID,917.981,VALID,0,VALID,96.9546,VALID,0,VALID,19.5678,VALID,99,VALID,0,
2012-08-23, 00:06:05,VALID,917.943,VALID,0,VALID,96.9622,VALID,0,VALID,19.5483,VALID,99,VALID,0,
2012-08-23, 00:07:05,VALID,917.949,VALID,0,VALID,97.0003,VALID,0,VALID,19.5693,VALID,99,VALID,0,
2012-08-23, 00:08:05,VALID,917.95,VALID,0,VALID,97.0385,VALID,0,VALID,19.5693,VALID,99,VALID,0,
2012-08-23, 00:09:05,VALID,917.913,VALID,0,VALID,97.0766,VALID,0,VALID,19.5678,VALID,99,VALID,0,
2012-08-23, 00:10:05,VALID,917.867,VALID,0,VALID,97.0918,VALID,0,VALID,19.5483,VALID,99,VALID,0,
2012-08-23, 00:11:05,VALID,917.809,VALID,0,VALID,97.0994,VALID,0,VALID,19.5693,VALID,99,VALID,0,
2012-08-23, 00:12:05,VALID,917.726,VALID,0,VALID,97.1223,VALID,0,VALID,19.6083,VALID,99,VALID,0,
2012-08-23, 00:13:05,VALID,917.689,VALID,0,VALID,97.1299,VALID,0,VALID,19.5693,VALID,99,VALID,0,
2012-08-23, 00:14:05,VALID,917.624,VALID,0,VALID,97.1071,VALID,0,VALID,19.4703,VALID,99,VALID,0,
2012-08-23, 00:15:05,VALID,917.603,VALID,0,VALID,97.1147,VALID,0,VALID,19.4703,VALID,99,VALID,0,
2012-08-23, 00:16:05,VALID,917.605,VALID,0,VALID,97.1299,VALID,0,VALID,19.5093,VALID,99,VALID,0,
2012-08-23, 00:17:05,VALID,917.579,VALID,0,VALID,97.1528,VALID,0,VALID,19.5498,VALID,99,VALID,0,
2012-08-23, 00:18:05,VALID,917.608,VALID,0,VALID,97.1909,VALID,0,VALID,19.5693,VALID,99,VALID,0,
2012-08-23, 00:19:05,VALID,917.64,VALID,0,VALID,97.2138,VALID,0,VALID,19.5288,VALID,99,VALID,0,
2012-08-23, 00:20:05,VALID,917.637,VALID,0,VALID,97.1909,VALID,0,VALID,19.5303,VALID,99,VALID,0,
2012-08-23, 00:21:05,VALID,917.651,VALID,0,VALID,97.2138,VALID,0,VALID,19.5093,VALID,99,VALID,0,
2012-08-23, 00:22:05,VALID,917.687,VALID,0,VALID,97.2062,VALID,0,VALID,19.4898,VALID,99,VALID,0,
2012-08-23, 00:23:05,VALID,917.643,VALID,0,VALID,97.2062,VALID,0,VALID,19.4703,VALID,99,VALID,0,
2012-08-23, 00:24:05,VALID,917.651,VALID,0,VALID,97.2138,VALID,0,VALID,19.4703,VALID,99,VALID,0,
2012-08-23, 00:25:05,VALID,917.645,VALID,0,VALID,97.2214,VALID,0,VALID,19.4313,VALID,99,VALID,0,
2012-08-23, 00:26:05,VALID,917.624,VALID,0,VALID,97.1909,VALID,0,VALID,19.4523,VALID,99,VALID,0,
2012-08-23, 00:27:05,VALID,917.639,VALID,0,VALID,97.2214,VALID,0,VALID,19.4523,VALID,99,VALID,0,
2012-08-23, 00:28:05,VALID,917.62,VALID,0,VALID,97.2214,VALID,0,VALID,19.3742,VALID,99,VALID,0,
2012-08-23, 00:29:05,VALID,917.63,VALID,0,VALID,97.1681,VALID,0,VALID,19.2363,VALID,99,VALID,0,
2012-08-23, 00:30:05,VALID,917.605,VALID,0,VALID,97.1604,VALID,0,VALID,19.2168,VALID,99,VALID,0,
2012-08-23, 00:31:05,VALID,917.602,VALID,0,VALID,97.1604,VALID,0,VALID,19.2182,VALID,99,VALID,0,
2012-08-23, 00:32:05,VALID,917.528,VALID,0,VALID,97.1986,VALID,0,VALID,19.2168,VALID,122,VALID,0,
2012-08-23, 00:33:05,VALID,917.555,VALID,0,VALID,97.229,VALID,0,VALID,19.1973,VALID,134,VALID,0,
2012-08-23, 00:34:05,VALID,917.516,VALID,0,VALID,97.2367,VALID,0,VALID,19.1987,VALID,141,VALID,0,
2012-08-23, 00:35:05,VALID,917.491,VALID,0,VALID,97.2519,VALID,0,VALID,19.1778,VALID,141,VALID,0,
2012-08-23, 00:36:05,VALID,917.474,VALID,0,VALID,97.2519,VALID,0,VALID,19.1987,VALID,141,VALID,0,
2012-08-23, 00:37:05,VALID,917.438,VALID,0,VALID,97.3053,VALID,0,VALID,19.2182,VALID,141,VALID,0,
2012-08-23, 00:38:05,VALID,917.466,VALID,0,VALID,97.2977,VALID,0,VALID,19.1792,VALID,141,VALID,0,
2012-08-23, 00:39:05,VALID,917.487,VALID,0,VALID,97.3053,VALID,0,VALID,19.1792,VALID,141,VALID,0,
2012-08-23, 00:40:05,VALID,917.496,VALID,0,VALID,97.3053,VALID,0,VALID,19.1792,VALID,141,VALID,0,
2012-08-23, 00:41:05,VALID,917.498,VALID,0,VALID,97.3281,VALID,0,VALID,19.2182,VALID,140,VALID,0,
2012-08-23, 00:42:05,VALID,917.447,VALID,0,VALID,97.3358,VALID,0,VALID,19.2182,VALID,140,VALID,0,
2012-08-23, 00:43:05,VALID,917.442,VALID,0,VALID,97.3434,VALID,0,VALID,19.2377,VALID,140,VALID,0,
2012-08-23, 00:44:05,VALID,917.376,VALID,0,VALID,97.3434,VALID,0,VALID,19.2182,VALID,140,VALID,0,
2012-08-23, 00:45:05,VALID,917.4,VALID,0,VALID,97.351,VALID,0,VALID,19.2182,VALID,140,VALID,0,
2012-08-23, 00:46:05,VALID,917.415,VALID,0,VALID,97.3815,VALID,0,VALID,19.1987,VALID,140,VALID,0,
2012-08-23, 00:47:05,VALID,917.383,VALID,0,VALID,97.3586,VALID,0,VALID,19.1987,VALID,140,VALID,0,
2012-08-23, 00:48:05,VALID,917.388,VALID,0,VALID,97.3815,VALID,0,VALID,19.2377,VALID,140,VALID,0,
2012-08-23, 00:49:05,VALID,917.388,VALID,0,VALID,97.3663,VALID,0,VALID,19.2377,VALID,140,VALID,0,
2012-08-23, 00:50:05,VALID,917.388,VALID,0,VALID,97.3815,VALID,0,VALID,19.2377,VALID,140,VALID,0,
2012-08-23, 00:51:05,VALID,917.395,VALID,0,VALID,97.4044,VALID,0,VALID,19.2182,VALID,140,VALID,0,
2012-08-23, 00:52:05,VALID,917.398,VALID,0,VALID,97.412,VALID,0,VALID,19.1987,VALID,140,VALID,0,
2012-08-23, 00:53:05,VALID,917.405,VALID,0,VALID,97.4196,VALID,0,VALID,19.1597,VALID,140,VALID,0,
2012-08-23, 00:54:05,VALID,917.442,VALID,0,VALID,97.4044,VALID,0,VALID,19.1597,VALID,140,VALID,0,
2012-08-23, 00:55:05,VALID,917.462,VALID,0,VALID,97.4196,VALID,0,VALID,19.1597,VALID,140,VALID,0,
2012-08-23, 00:56:05,VALID,917.511,VALID,0,VALID,97.4349,VALID,0,VALID,19.1583,VALID,140,VALID,0,
2012-08-23, 00:57:05,VALID,917.523,VALID,0,VALID,97.4273,VALID,0,VALID,19.1583,VALID,140,VALID,0,
2012-08-23, 00:58:05,VALID,917.526,VALID,0,VALID,97.4425,VALID,0,VALID,19.1792,VALID,140,VALID,0,
2012-08-23, 00:59:05,VALID,917.53,VALID,0,VALID,97.4196,VALID,0,VALID,19.1193,VALID,140,VALID,0,
2012-08-23, 01:00:05,VALID,917.479,VALID,0,VALID,97.4273,VALID,0,VALID,19.1597,VALID,140,VALID,0,
2012-08-23, 01:01:05,VALID,917.477,VALID,0,VALID,97.4501,VALID,0,VALID,19.1402,VALID,140,VALID,0,
2012-08-23, 01:02:05,VALID,917.463,VALID,0,VALID,97.473,VALID,0,VALID,19.1402,VALID,140,VALID,0,
2012-08-23, 01:03:05,VALID,917.438,VALID,0,VALID,97.4654,VALID,0.107441,VALID,19.1193,VALID,140,VALID,0,
2012-08-23, 01:04:05,VALID,917.473,VALID,0,VALID,97.4577,VALID,0,VALID,19.1402,VALID,140,VALID,0,
2012-08-23, 01:05:05,VALID,917.457,VALID,0,VALID,97.473,VALID,0,VALID,19.1402,VALID,140,VALID,0,
2012-08-23, 01:06:05,VALID,917.463,VALID,0,VALID,97.4577,VALID,0,VALID,19.1402,VALID,140,VALID,0,
2012-08-23, 01:07:05,VALID,917.437,VALID,0,VALID,97.4501,VALID,0,VALID,19.0998,VALID,140,VALID,0,
2012-08-23, 01:08:05,VALID,917.459,VALID,0,VALID,97.4501,VALID,0,VALID,19.1207,VALID,140,VALID,0,
2012-08-23, 01:09:05,VALID,917.447,VALID,0,VALID,97.4806,VALID,0,VALID,19.1402,VALID,140,VALID,0,
2012-08-23, 01:10:05,VALID,917.386,VALID,0,VALID,97.4654,VALID,0,VALID,19.1207,VALID,140,VALID,0,
2012-08-23, 01:11:05,VALID,917.403,VALID,0,VALID,97.4806,VALID,0,VALID,19.1012,VALID,140,VALID,0,
2012-08-23, 01:12:05,VALID,917.391,VALID,0,VALID,97.4806,VALID,0,VALID,19.1012,VALID,140,VALID,0,
2012-08-23, 01:13:05,VALID,917.386,VALID,0,VALID,97.4654,VALID,0,VALID,19.0037,VALID,140,VALID,0,
2012-08-23, 01:14:05,VALID,917.418,VALID,0,VALID,97.4654,VALID,0,VALID,18.9647,VALID,140,VALID,0,
2012-08-23, 01:15:05,VALID,917.426,VALID,0,VALID,97.473,VALID,0,VALID,18.9452,VALID,140,VALID,0,
2012-08-23, 01:16:05,VALID,917.477,VALID,0,VALID,97.4577,VALID,0,VALID,18.8672,VALID,99,VALID,0,
2012-08-23, 01:17:05,VALID,917.461,VALID,0,VALID,97.4501,VALID,0,VALID,18.8282,VALID,99,VALID,0,
2012-08-23, 01:18:05,VALID,917.448,VALID,0,VALID,97.4654,VALID,0,VALID,18.8087,VALID,87,VALID,0,
2012-08-23, 01:19:05,VALID,917.477,VALID,0,VALID,97.4806,VALID,0,VALID,18.7892,VALID,75,VALID,0,
2012-08-23, 01:20:05,VALID,917.409,VALID,0,VALID,97.4806,VALID,0,VALID,18.7892,VALID,75,VALID,0,
2012-08-23, 01:21:05,VALID,917.358,VALID,0,VALID,97.5035,VALID,0.107441,VALID,18.7892,VALID,75,VALID,0,
2012-08-23, 01:22:04,VALID,917.355,VALID,0,VALID,97.4882,VALID,0,VALID,18.7892,VALID,75,VALID,0,
2012-08-23, 01:23:04,VALID,917.374,VALID,0,VALID,97.5264,VALID,0,VALID,18.7892,VALID,75,VALID,0,
2012-08-23, 01:24:04,VALID,917.359,VALID,0,VALID,97.5264,VALID,0,VALID,18.7697,VALID,75,VALID,0,
2012-08-23, 01:25:04,VALID,917.381,VALID,0,VALID,97.5569,VALID,0,VALID,18.7892,VALID,75,VALID,0,
2012-08-23, 01:26:04,VALID,917.359,VALID,0,VALID,97.5416,VALID,0.107441,VALID,18.8477,VALID,75,VALID,0,
2012-08-23, 01:27:04,VALID,917.407,VALID,0,VALID,97.5492,VALID,0,VALID,18.8477,VALID,75,VALID,0,
2012-08-23, 01:28:04,VALID,917.332,VALID,0,VALID,97.5645,VALID,0,VALID,18.8672,VALID,75,VALID,0,
2012-08-23, 01:29:04,VALID,917.319,VALID,0,VALID,97.5645,VALID,0,VALID,18.8463,VALID,75,VALID,0,
2012-08-23, 01:30:04,VALID,917.346,VALID,0,VALID,97.5721,VALID,0,VALID,18.8867,VALID,75,VALID,0,
2012-08-23, 01:31:04,VALID,917.308,VALID,0,VALID,97.5569,VALID,0,VALID,18.8672,VALID,75,VALID,0,
2012-08-23, 01:32:04,VALID,917.309,VALID,0,VALID,97.5645,VALID,0,VALID,18.8477,VALID,75,VALID,0,
2012-08-23, 01:33:04,VALID,917.245,VALID,0,VALID,97.5645,VALID,0,VALID,18.8672,VALID,75,VALID,0,
2012-08-23, 01:34:04,VALID,917.273,VALID,0,VALID,97.5721,VALID,0,VALID,18.8463,VALID,75,VALID,0,
2012-08-23, 01:35:04,VALID,917.227,VALID,0,VALID,97.5873,VALID,0,VALID,18.8672,VALID,75,VALID,0,
2012-08-23, 01:36:04,VALID,917.194,VALID,0,VALID,97.5721,VALID,0,VALID,18.8477,VALID,75,VALID,0,
2012-08-23, 01:37:04,VALID,917.141,VALID,0,VALID,97.5873,VALID,0,VALID,18.8087,VALID,75,VALID,0,
2012-08-23, 01:38:04,VALID,917.128,VALID,0,VALID,97.6102,VALID,0,VALID,18.7697,VALID,75,VALID,0,
2012-08-23, 01:39:04,VALID,917.07,VALID,0,VALID,97.5873,VALID,0,VALID,18.7892,VALID,75,VALID,0,
2012-08-23, 01:40:04,VALID,917.014,VALID,0,VALID,97.5873,VALID,0,VALID,18.8477,VALID,75,VALID,0,
2012-08-23, 01:41:04,VALID,916.969,VALID,0,VALID,97.595,VALID,0,VALID,18.8477,VALID,75,VALID,0,
2012-08-23, 01:42:04,VALID,916.928,VALID,0,VALID,97.6102,VALID,0,VALID,18.8658,VALID,75,VALID,0,
2012-08-23, 01:43:04,VALID,916.917,VALID,0,VALID,97.6026,VALID,0,VALID,18.9452,VALID,75,VALID,0,
2012-08-23, 01:44:04,VALID,916.871,VALID,0,VALID,97.6178,VALID,0,VALID,18.9647,VALID,75,VALID,0,
2012-08-23, 01:45:04,VALID,916.881,VALID,0,VALID,97.6178,VALID,0,VALID,19.0232,VALID,75,VALID,0,
2012-08-23, 01:46:04,VALID,916.846,VALID,0,VALID,97.6026,VALID,0,VALID,18.9257,VALID,75,VALID,0,
2012-08-23, 01:47:04,VALID,916.877,VALID,0,VALID,97.6102,VALID,0,VALID,18.8477,VALID,75,VALID,0,
2012-08-23, 01:48:04,VALID,916.882,VALID,0,VALID,97.5873,VALID,0,VALID,18.8672,VALID,75,VALID,0,
2012-08-23, 01:49:04,VALID,916.918,VALID,0,VALID,97.6026,VALID,0,VALID,18.7892,VALID,75,VALID,0,
2012-08-23, 01:50:04,VALID,916.888,VALID,0,VALID,97.5873,VALID,0,VALID,18.8087,VALID,75,VALID,0,
2012-08-23, 01:51:04,VALID,916.915,VALID,0,VALID,97.6026,VALID,0,VALID,18.8087,VALID,75,VALID,0,
2012-08-23, 01:52:04,VALID,916.945,VALID,0,VALID,97.5797,VALID,0,VALID,18.7697,VALID,75,VALID,0,
2012-08-23, 01:53:04,VALID,916.93,VALID,0,VALID,97.595,VALID,0,VALID,18.7308,VALID,75,VALID,0,
2012-08-23, 01:54:04,VALID,916.921,VALID,0,VALID,97.6026,VALID,0,VALID,18.7308,VALID,75,VALID,0,
2012-08-23, 01:55:04,VALID,916.859,VALID,0,VALID,97.6178,VALID,0,VALID,18.7697,VALID,75,VALID,0,
2012-08-23, 01:56:04,VALID,916.828,VALID,0,VALID,97.6102,VALID,0,VALID,18.7308,VALID,75,VALID,0,
2012-08-23, 01:57:04,VALID,916.791,VALID,0,VALID,97.6026,VALID,0,VALID,18.7697,VALID,75,VALID,0,
2012-08-23, 01:58:04,VALID,916.759,VALID,0,VALID,97.6102,VALID,0,VALID,18.8282,VALID,75,VALID,0,
2012-08-23, 01:59:04,VALID,916.706,VALID,0,VALID,97.6178,VALID,0,VALID,18.8658,VALID,75,VALID,0,
2012-08-23, 02:00:04,VALID,916.704,VALID,0,VALID,97.6407,VALID,0,VALID,18.8672,VALID,75,VALID,0,
2012-08-23, 02:01:04,VALID,916.737,VALID,0,VALID,97.6407,VALID,0,VALID,18.8867,VALID,75,VALID,0,
2012-08-23, 02:02:04,VALID,916.799,VALID,0,VALID,97.6255,VALID,0,VALID,18.8867,VALID,75,VALID,0,
2012-08-23, 02:03:04,VALID,916.836,VALID,0,VALID,97.6331,VALID,0,VALID,18.8282,VALID,75,VALID,0,
2012-08-23, 02:04:04,VALID,916.842,VALID,0,VALID,97.6178,VALID,0,VALID,18.7712,VALID,75,VALID,0,
2012-08-23, 02:05:04,VALID,916.826,VALID,0,VALID,97.6255,VALID,0,VALID,18.7712,VALID,75,VALID,0,
2012-08-23, 02:06:04,VALID,916.846,VALID,0,VALID,97.6102,VALID,0,VALID,18.7308,VALID,75,VALID,0,
2012-08-23, 02:07:04,VALID,916.81,VALID,0,VALID,97.6026,VALID,0,VALID,18.7127,VALID,75,VALID,0,
2012-08-23, 02:08:04,VALID,916.843,VALID,0,VALID,97.6255,VALID,0,VALID,18.7127,VALID,75,VALID,0,
2012-08-23, 02:09:04,VALID,916.81,VALID,0,VALID,97.6178,VALID,0,VALID,18.6723,VALID,75,VALID,0,
2012-08-23, 02:10:04,VALID,916.807,VALID,0,VALID,97.6178,VALID,0,VALID,18.7127,VALID,75,VALID,0,
2012-08-23, 02:11:04,VALID,916.812,VALID,0,VALID,97.6331,VALID,0,VALID,18.6918,VALID,75,VALID,0,
2012-08-23, 02:12:04,VALID,916.764,VALID,0,VALID,97.6255,VALID,0,VALID,18.7517,VALID,75,VALID,0,
2012-08-23, 02:13:04,VALID,916.784,VALID,0,VALID,97.6331,VALID,0,VALID,18.7503,VALID,75,VALID,0,
2012-08-23, 02:14:04,VALID,916.779,VALID,0,VALID,97.6255,VALID,0,VALID,18.7113,VALID,75,VALID,0,
2012-08-23, 02:15:04,VALID,916.775,VALID,0,VALID,97.6483,VALID,0,VALID,18.6918,VALID,75,VALID,0,
2012-08-23, 02:16:04,VALID,916.791,VALID,0,VALID,97.6331,VALID,0,VALID,18.6319,VALID,75,VALID,0,
2012-08-23, 02:17:04,VALID,916.793,VALID,0,VALID,97.6407,VALID,0,VALID,18.5929,VALID,75,VALID,0,
2012-08-23, 02:18:04,VALID,916.79,VALID,0,VALID,97.6255,VALID,0,VALID,18.5748,VALID,75,VALID,0,
2012-08-23, 02:19:04,VALID,916.78,VALID,0,VALID,97.6026,VALID,0,VALID,18.5567,VALID,75,VALID,0,
2012-08-23, 02:20:04,VALID,916.804,VALID,0,VALID,97.6255,VALID,0,VALID,18.5372,VALID,75,VALID,0,
2012-08-23, 02:21:04,VALID,916.724,VALID,0,VALID,97.6255,VALID,0,VALID,18.5372,VALID,75,VALID,0,
2012-08-23, 02:22:04,VALID,916.691,VALID,0,VALID,97.6178,VALID,0,VALID,18.5567,VALID,75,VALID,0,
2012-08-23, 02:23:04,VALID,916.649,VALID,0,VALID,97.6331,VALID,0,VALID,18.5762,VALID,153,VALID,0,
2012-08-23, 02:24:04,VALID,916.579,VALID,0,VALID,97.6331,VALID,0,VALID,18.6152,VALID,153,VALID,0,
2012-08-23, 02:25:04,VALID,916.537,VALID,0,VALID,97.6407,VALID,0,VALID,18.6347,VALID,153,VALID,0,
2012-08-23, 02:26:04,VALID,916.492,VALID,0,VALID,97.6483,VALID,0,VALID,18.6347,VALID,153,VALID,0,
2012-08-23, 02:27:04,VALID,916.485,VALID,0,VALID,97.6483,VALID,0,VALID,18.6542,VALID,153,VALID,0,
2012-08-23, 02:28:04,VALID,916.431,VALID,0,VALID,97.6636,VALID,0,VALID,18.6542,VALID,153,VALID,0,
2012-08-23, 02:29:04,VALID,916.432,VALID,0,VALID,97.656,VALID,0,VALID,18.6138,VALID,153,VALID,0,
2012-08-23, 02:30:04,VALID,916.415,VALID,0,VALID,97.6483,VALID,0,VALID,18.5163,VALID,153,VALID,0,
2012-08-23, 02:31:04,VALID,916.42,VALID,0,VALID,97.6407,VALID,0,VALID,18.4982,VALID,153,VALID,0,
2012-08-23, 02:32:04,VALID,916.422,VALID,0,VALID,97.656,VALID,0,VALID,18.4592,VALID,153,VALID,0,
2012-08-23, 02:33:04,VALID,916.403,VALID,0,VALID,97.6483,VALID,0,VALID,18.4578,VALID,153,VALID,0,
2012-08-23, 02:34:04,VALID,916.374,VALID,0,VALID,97.6331,VALID,0,VALID,18.4578,VALID,153,VALID,0,
2012-08-23, 02:35:04,VALID,916.337,VALID,0,VALID,97.6331,VALID,0.107441,VALID,18.3993,VALID,153,VALID,0,
2012-08-23, 02:36:04,VALID,916.329,VALID,0,VALID,97.6407,VALID,0,VALID,18.3993,VALID,153,VALID,0,
2012-08-23, 02:37:04,VALID,916.332,VALID,0,VALID,97.6483,VALID,0,VALID,18.4188,VALID,153,VALID,0,
2012-08-23, 02:38:04,VALID,916.32,VALID,0,VALID,97.656,VALID,0,VALID,18.3018,VALID,153,VALID,0,
2012-08-23, 02:39:04,VALID,916.311,VALID,0,VALID,97.6712,VALID,0,VALID,18.3603,VALID,69,VALID,0,
2012-08-23, 02:40:04,VALID,916.289,VALID,0,VALID,97.6865,VALID,0,VALID,18.3798,VALID,69,VALID,0,
2012-08-23, 02:41:04,VALID,916.292,VALID,0,VALID,97.6788,VALID,0,VALID,18.3589,VALID,69,VALID,0,
2012-08-23, 02:42:04,VALID,916.301,VALID,0,VALID,97.6865,VALID,0,VALID,18.4578,VALID,69,VALID,0,
2012-08-23, 02:43:04,VALID,916.264,VALID,0,VALID,97.6941,VALID,0,VALID,18.4578,VALID,69,VALID,0,
2012-08-23, 02:44:04,VALID,916.225,VALID,0,VALID,97.7093,VALID,0,VALID,18.4968,VALID,69,VALID,0,
2012-08-23, 02:45:04,VALID,916.211,VALID,0,VALID,97.6941,VALID,0.107441,VALID,18.5163,VALID,69,VALID,0,
2012-08-23, 02:46:04,VALID,916.168,VALID,0,VALID,97.6865,VALID,0,VALID,18.5358,VALID,69,VALID,0,
2012-08-23, 02:47:04,VALID,916.184,VALID,0,VALID,97.7169,VALID,0.107441,VALID,18.5748,VALID,69,VALID,0,
2012-08-23, 02:48:04,VALID,916.176,VALID,0,VALID,97.7169,VALID,0.107441,VALID,18.4954,VALID,69,VALID,0,
2012-08-23, 02:49:04,VALID,916.161,VALID,0,VALID,97.6865,VALID,0,VALID,18.4369,VALID,69,VALID,0,
2012-08-23, 02:50:04,VALID,916.163,VALID,0,VALID,97.7169,VALID,0.107441,VALID,18.3603,VALID,69,VALID,0,
2012-08-23, 02:51:04,VALID,916.132,VALID,0,VALID,97.7093,VALID,0,VALID,18.3408,VALID,103,VALID,0,
2012-08-23, 02:52:04,VALID,916.131,VALID,0,VALID,97.7017,VALID,0,VALID,18.3784,VALID,112,VALID,0,
2012-08-23, 02:53:04,VALID,916.095,VALID,0,VALID,97.7093,VALID,0,VALID,18.3394,VALID,112,VALID,0,
2012-08-23, 02:54:04,VALID,916.09,VALID,0,VALID,97.7017,VALID,0,VALID,18.164,VALID,112,VALID,0,
2012-08-23, 02:55:04,VALID,916.086,VALID,0,VALID,97.6865,VALID,0.107441,VALID,18.2823,VALID,112,VALID,0,
2012-08-23, 02:56:04,VALID,916.083,VALID,0,VALID,97.6941,VALID,0,VALID,18.3004,VALID,112,VALID,0,
2012-08-23, 02:57:04,VALID,916.091,VALID,0,VALID,97.7017,VALID,0,VALID,18.3004,VALID,109,VALID,0,
2012-08-23, 02:58:04,VALID,916.077,VALID,0,VALID,97.7246,VALID,0,VALID,18.3798,VALID,103,VALID,0,
2012-08-23, 02:59:04,VALID,916.104,VALID,0,VALID,97.7246,VALID,0,VALID,18.3589,VALID,100,VALID,0,
2012-08-23, 03:00:04,VALID,916.114,VALID,0,VALID,97.7398,VALID,0,VALID,18.3589,VALID,116,VALID,0,
2012-08-23, 03:01:04,VALID,916.126,VALID,0,VALID,97.7398,VALID,0,VALID,18.3798,VALID,107,VALID,0,
2012-08-23, 03:02:04,VALID,916.153,VALID,0,VALID,97.7398,VALID,0,VALID,18.4188,VALID,105,VALID,0,
2012-08-23, 03:03:04,VALID,916.132,VALID,0,VALID,97.7398,VALID,0,VALID,18.4564,VALID,108,VALID,0,
2012-08-23, 03:04:04,VALID,916.137,VALID,0,VALID,97.7474,VALID,0,VALID,18.5163,VALID,115,VALID,0,
2012-08-23, 03:05:04,VALID,916.111,VALID,0,VALID,97.7398,VALID,0.107441,VALID,18.5163,VALID,116,VALID,0,
2012-08-23, 03:06:04,VALID,916.122,VALID,0,VALID,97.7474,VALID,0.107441,VALID,18.5539,VALID,116,VALID,0,
2012-08-23, 03:07:04,VALID,916.081,VALID,0,VALID,97.7322,VALID,0.107441,VALID,18.5748,VALID,116,VALID,0,
2012-08-23, 03:08:04,VALID,916.086,VALID,0,VALID,97.7398,VALID,0,VALID,18.5748,VALID,116,VALID,0,
2012-08-23, 03:09:04,VALID,916.077,VALID,0,VALID,97.7169,VALID,0,VALID,18.5539,VALID,116,VALID,0,
2012-08-23, 03:10:04,VALID,916.067,VALID,0,VALID,97.7551,VALID,0.107441,VALID,18.5553,VALID,116,VALID,0,
2012-08-23, 03:11:04,VALID,916.028,VALID,0,VALID,97.7551,VALID,0,VALID,18.5358,VALID,116,VALID,0,
2012-08-23, 03:12:04,VALID,916.047,VALID,0,VALID,97.7398,VALID,0,VALID,18.5149,VALID,116,VALID,0,
2012-08-23, 03:13:04,VALID,916.044,VALID,0,VALID,97.7322,VALID,0.107441,VALID,18.5358,VALID,116,VALID,0,
2012-08-23, 03:14:04,VALID,916.034,VALID,0,VALID,97.7627,VALID,0,VALID,18.5163,VALID,116,VALID,0,
2012-08-23, 03:15:04,VALID,915.981,VALID,0,VALID,97.7627,VALID,0,VALID,18.5358,VALID,116,VALID,0,
2012-08-23, 03:16:04,VALID,915.951,VALID,0,VALID,97.7551,VALID,0,VALID,18.5358,VALID,116,VALID,0,
2012-08-23, 03:17:04,VALID,915.977,VALID,0,VALID,97.7474,VALID,0,VALID,18.4954,VALID,116,VALID,0,
2012-08-23, 03:18:04,VALID,915.948,VALID,0,VALID,97.7322,VALID,0,VALID,18.4773,VALID,116,VALID,0,
2012-08-23, 03:19:04,VALID,915.988,VALID,0,VALID,97.7474,VALID,0,VALID,18.4592,VALID,116,VALID,0,
2012-08-23, 03:20:04,VALID,916.016,VALID,0,VALID,97.7398,VALID,0,VALID,18.4578,VALID,116,VALID,0,
2012-08-23, 03:21:04,VALID,916.068,VALID,0,VALID,97.7551,VALID,0,VALID,18.4982,VALID,116,VALID,0,
2012-08-23, 03:22:04,VALID,916.061,VALID,0,VALID,97.7551,VALID,0,VALID,18.4787,VALID,116,VALID,0,
2012-08-23, 03:23:04,VALID,916.106,VALID,0,VALID,97.7627,VALID,0,VALID,18.4188,VALID,116,VALID,0,
2012-08-23, 03:24:04,VALID,916.096,VALID,0,VALID,97.7551,VALID,0,VALID,18.3617,VALID,116,VALID,0,
2012-08-23, 03:25:04,VALID,916.132,VALID,0,VALID,97.7551,VALID,0,VALID,18.3422,VALID,116,VALID,0,
2012-08-23, 03:26:04,VALID,916.128,VALID,0,VALID,97.7627,VALID,0,VALID,18.3018,VALID,116,VALID,0,
2012-08-23, 03:27:04,VALID,916.151,VALID,0,VALID,97.7627,VALID,0,VALID,18.2823,VALID,116,VALID,0,
2012-08-23, 03:28:04,VALID,916.143,VALID,0,VALID,97.7779,VALID,0,VALID,18.2628,VALID,116,VALID,0,
2012-08-23, 03:29:04,VALID,916.156,VALID,0,VALID,97.7703,VALID,0,VALID,18.2433,VALID,166,VALID,0,
2012-08-23, 03:30:04,VALID,916.162,VALID,0,VALID,97.7779,VALID,0,VALID,18.2447,VALID,166,VALID,0,
2012-08-23, 03:31:04,VALID,916.13,VALID,0,VALID,97.7779,VALID,0,VALID,18.2642,VALID,166,VALID,0,
2012-08-23, 03:32:04,VALID,916.151,VALID,0,VALID,97.7703,VALID,0,VALID,18.2044,VALID,166,VALID,0,
2012-08-23, 03:33:04,VALID,916.119,VALID,0,VALID,97.7779,VALID,0.107441,VALID,18.2238,VALID,166,VALID,0,
2012-08-23, 03:34:04,VALID,916.117,VALID,0,VALID,97.7779,VALID,0,VALID,18.2823,VALID,166,VALID,0,
2012-08-23, 03:35:04,VALID,916.111,VALID,0,VALID,97.7932,VALID,0,VALID,18.2823,VALID,166,VALID,0,
2012-08-23, 03:36:04,VALID,916.088,VALID,0,VALID,97.7856,VALID,0,VALID,18.2809,VALID,166,VALID,0,
2012-08-23, 03:37:04,VALID,916.113,VALID,0,VALID,97.7856,VALID,0,VALID,18.3018,VALID,166,VALID,0,
2012-08-23, 03:38:04,VALID,916.107,VALID,0,VALID,97.8008,VALID,0,VALID,18.2615,VALID,166,VALID,0,
2012-08-23, 03:39:04,VALID,916.132,VALID,0,VALID,97.7856,VALID,0,VALID,18.2044,VALID,166,VALID,0,
2012-08-23, 03:40:04,VALID,916.141,VALID,0,VALID,97.7856,VALID,0.107441,VALID,18.125,VALID,166,VALID,0,
2012-08-23, 03:41:04,VALID,916.168,VALID,0,VALID,97.7932,VALID,0,VALID,18.1445,VALID,166,VALID,0,
2012-08-23, 03:42:04,VALID,916.127,VALID,0,VALID,97.8008,VALID,0,VALID,18.1849,VALID,166,VALID,0,
2012-08-23, 03:43:04,VALID,916.109,VALID,0,VALID,97.7932,VALID,0.107441,VALID,18.1835,VALID,166,VALID,0,
2012-08-23, 03:44:04,VALID,916.061,VALID,0,VALID,97.8008,VALID,0,VALID,18.2615,VALID,166,VALID,0,
2012-08-23, 03:45:04,VALID,916.054,VALID,0,VALID,97.7779,VALID,0,VALID,18.3408,VALID,166,VALID,0,
2012-08-23, 03:46:04,VALID,916.034,VALID,0,VALID,97.7932,VALID,0.107441,VALID,18.3394,VALID,166,VALID,0,
2012-08-23, 03:47:04,VALID,916.019,VALID,0,VALID,97.7932,VALID,0.107441,VALID,18.3018,VALID,166,VALID,0,
2012-08-23, 03:48:04,VALID,916.048,VALID,0,VALID,97.8008,VALID,0.107441,VALID,18.2225,VALID,166,VALID,0,
2012-08-23, 03:49:04,VALID,916,VALID,0,VALID,97.816,VALID,0.107441,VALID,18.2823,VALID,166,VALID,0,
2012-08-23, 03:50:04,VALID,916.023,VALID,0,VALID,97.8084,VALID,0.107441,VALID,18.2809,VALID,166,VALID,0,
2012-08-23, 03:51:04,VALID,916.011,VALID,0,VALID,97.8084,VALID,0.107441,VALID,18.2823,VALID,166,VALID,0,
2012-08-23, 03:52:04,VALID,916.038,VALID,0,VALID,97.816,VALID,0,VALID,18.2628,VALID,166,VALID,0,
2012-08-23, 03:53:04,VALID,916.05,VALID,0,VALID,97.8084,VALID,0.107441,VALID,18.2823,VALID,166,VALID,0,
2012-08-23, 03:54:04,VALID,916.055,VALID,0,VALID,97.8237,VALID,0.107441,VALID,18.2433,VALID,166,VALID,0,
2012-08-23, 03:55:04,VALID,916.062,VALID,0,VALID,97.8008,VALID,0,VALID,18.1459,VALID,166,VALID,0,
2012-08-23, 03:56:04,VALID,916.102,VALID,0,VALID,97.8237,VALID,0.107441,VALID,18.1835,VALID,166,VALID,0,
2012-08-23, 03:57:04,VALID,916.08,VALID,0,VALID,97.8008,VALID,0.107441,VALID,18.2823,VALID,162,VALID,0,
2012-08-23, 03:58:04,VALID,916.068,VALID,0,VALID,97.8237,VALID,0,VALID,18.2809,VALID,140,VALID,0,